[[{"header":{"parameterUnit":"m.s-1","parameterCategory":1,"la1":30.2991,"la2":30.254,"lo1":-89.0895,"lo2":-89.0444,"dy":0.0017,"dx":0.0017,"nx":28,"ny":28,"refTime":"2024-06-10T09:00:00:Z","depth":0,"parameterNumber":2,"parameterNumberName":"U-component_of_WINDS"},"data":[0,0,0,0,0,0,0,0,0,0,0,0,0,0,0,0,0,0,0,0,0,0,0,0,0,0,0,0,0,0,0,0,0,0,0,0,0,0,0,0,0,0,0,0,0,0,0,0,0,0,0,0,0,0,0,0,0,0,0.1332,0.133,0,0.1196,0.1194,0.1193,0.1012,0.1009,0.1006,0.1004,0.0871,0.087,0.087,0,0,0,0,0,0,0,0,0,0,0,0,0,0.1444,0.1443,0.1332,0.133,0.1328,0.1196,0.1194,0.1192,0.1013,0.1009,0.1006,0.1002,0.0871,0.087,0.087,0,0,0,0,0,0,0,0,0,0,0,0,0,0.1361,0.1442,0.1332,0.1223,0.1212,0.1196,0.1194,0.1192,0.1014,0.1009,0.1005,0.1001,0.0872,0.0871,0.0869,0.0952,0,0,0.0866,0.0866,0,0,0,0,0,0,0,0,0.1365,0.1357,0.1241,0.123,0.1218,0.1116,0.1185,0.1112,0.1015,0.1089,0.1004,0.0998,0.0957,0.0948,0.0933,0.0946,0.094,0.0866,0.0865,0.0865,0.0864,0,0,0,0,0,0,0,0.1371,0.1361,0.1278,0.1239,0.1225,0.1183,0.1166,0.117,0.105,0.1082,0.1069,0.1055,0.095,0.0934,0.0928,0.0938,0.0866,0.0865,0.0864,0.0864,0.1016,0.1021,0,0,0,0,0,0,0.1393,0.1367,0.1282,0.1274,0.1282,0.1185,0.1166,0.1154,0.1049,0.1029,0.1059,0.1047,0.0939,0.093,0.0923,0.1015,0.0865,0.0864,0.0863,0.1012,0.1018,0.1023,0,0,0,0,0,0,0.1396,0.1387,0.1288,0.1317,0.1301,0.1187,0.1175,0.1153,0.1137,0.1032,0.101,0.1065,0.0935,0.0925,0.0947,0.1008,0.0863,0.0862,0.1006,0.1014,0.102,0.1199,0,0,0,0,0,0,0.14,0.1389,0.1417,0.1319,0.13,0.1312,0.1179,0.1154,0.1135,0.1119,0.1031,0.1013,0.093,0.0949,0.0946,0.1004,0.0861,0.1,0.1009,0.1018,0.1188,0.1212,0.1233,0,0,0,0,0,0.1404,0.1474,0.1419,0.141,0.1333,0.1316,0.1305,0.1207,0.1141,0.117,0.1102,0.1016,0.1002,0.0953,0.0947,0.1006,0.0996,0.1007,0.1017,0.1177,0.1207,0.1232,0,0,0,0,0,0,0.1583,0.1459,0.1397,0.1436,0.1388,0.1285,0.1318,0.1241,0.1212,0.1197,0.1079,0.1061,0.1099,0.1054,0.1002,0.1083,0.0986,0.0996,0.111,0.1137,0.1159,0.117,0.086,0,0,0,0,0,0.1627,0.1621,0.1513,0.1559,0.1538,0.1433,0.1422,0.135,0.1296,0.1275,0.1209,0.1162,0.1147,0.1139,0.1119,0.118,0.1161,0.1218,0.1241,0.126,0.127,0.1302,0.1328,0.1058,0.1057,0.1057,0,0,0.1718,0.165,0.1653,0.1593,0.1547,0.1547,0.1417,0.1421,0.142,0.1276,0.1293,0.1243,0.1183,0.1226,0.1241,0.119,0.1341,0.1273,0.1289,0.1289,0.1316,0.1342,0.1365,0.1065,0.1063,0.1062,0,0,0.1884,0.183,0.1863,0.182,0.1751,0.1682,0.169,0.1599,0.1561,0.1575,0.1468,0.1467,0.1443,0.1405,0.1383,0.1538,0.1458,0.1535,0.1653,0.1685,0.1707,0.1725,0.1783,0.1804,0.1545,0.1546,0.1546,0,0.2006,0.1998,0.189,0.1901,0.188,0.1749,0.1783,0.1747,0.1677,0.1666,0.161,0.1578,0.1528,0.1562,0.16,0.1585,0.1594,0.1544,0.1712,0.1729,0.1745,0.1798,0.182,0.1556,0.1555,0.1554,0.1553,0,0.2153,0.215,0.2185,0.2119,0.2101,0.2125,0.2023,0.2019,0.195,0.1888,0.1907,0.1842,0.1808,0.1811,0.1744,0.1836,0.1807,0.1733,0.1634,0.1782,0.1831,0.185,0.157,0.1566,0.1563,0.1561,0,0,0.2426,0.2302,0.2317,0.2287,0.2203,0.22,0.2219,0.2184,0.2184,0.2141,0.2156,0.214,0.2072,0.2047,0.1975,0.2004,0.2134,0.1926,0.1923,0.1969,0.2235,0.2292,0.2317,0.208,0.2084,0.2086,0.224,0,0.2576,0.2599,0.2504,0.2552,0.255,0.2427,0.2444,0.2397,0.234,0.2332,0.2269,0.2261,0.217,0.2155,0.2177,0.2113,0.2186,0.2101,0.2096,0.2097,0.2116,0.2342,0.2401,0.255,0.2258,0.2261,0.2264,0,0.2754,0.272,0.2769,0.2685,0.268,0.2697,0.2659,0.2652,0.2597,0.2554,0.2528,0.2445,0.2461,0.2366,0.2388,0.2332,0.2325,0.2294,0.2297,0.2294,0.219,0.2347,0.2594,0.2618,0.2292,0.229,0.2288,0,0.2951,0.2917,0.2942,0.292,0.2823,0.2838,0.2799,0.2739,0.2725,0.2694,0.2684,0.2656,0.2641,0.2622,0.2535,0.2473,0.2569,0.2466,0.2536,0.2539,0.2562,0.2562,0.2814,0.2556,0.2556,0.2555,0.2555,0,0.3129,0.3164,0.303,0.3045,0.3082,0.2974,0.3015,0.2963,0.2912,0.2918,0.2811,0.2819,0.2703,0.27,0.2633,0.2663,0.2657,0.2624,0.2606,0.2635,0.2639,0.2629,0.2617,0.2561,0.256,0.2559,0.2558,0,0.3355,0.3266,0.3285,0.3192,0.317,0.3201,0.3123,0.3135,0.3072,0.3082,0.3078,0.298,0.2971,0.2882,0.2854,0.2808,0.2866,0.2827,0.2884,0.2872,0.2948,0.2944,0.3204,0.3234,0.2956,0.2959,0.2961,0,0.3475,0.3499,0.3409,0.3404,0.337,0.3364,0.3349,0.3246,0.3236,0.3177,0.3198,0.318,0.316,0.3152,0.308,0.3059,0.302,0.3113,0.3016,0.3045,0.3024,0.3024,0.3028,0.3134,0.3138,0.314,0.3143,0,0.3698,0.3654,0.3636,0.3605,0.359,0.3561,0.3525,0.3528,0.3414,0.341,0.3398,0.3383,0.3354,0.3339,0.3306,0.3268,0.3189,0.3174,0.3189,0.3219,0.3252,0.3238,0.2942,0.3168,0.3166,0.3164,0.3162,0.3161,0.3875,0.3892,0.3832,0.3817,0.3779,0.3749,0.3757,0.3695,0.3683,0.3651,0.3591,0.359,0.3538,0.3485,0.3455,0.3454,0.3406,0.3428,0.3434,0.3442,0.3458,0.3251,0.3448,0.3447,0.3446,0.3445,0.3445,0,0.4094,0.405,0.4038,0.3991,0.3981,0.3905,0.3862,0.3859,0.3859,0.3816,0.3799,0.3789,0.3774,0.3702,0.3681,0.3695,0.3658,0.3693,0.3691,0.3685,0.3501,0.349,0.3723,0.3723,0.3723,0.3723,0.3723,0.3723,0.4207,0.4232,0.4182,0.4189,0.4144,0.4141,0.4124,0.4097,0.4063,0.4055,0.4042,0.3995,0.3942,0.3916,0.3901,0.388,0.3879,0.3926,0.3894,0.3724,0.3697,0.3672,0.3661,0.3926,0.3927,0.4078,0.408,0.4081]},{"header":{"parameterUnit":"m.s-1","parameterCategory":1,"la1":30.2991,"la2":30.254,"lo1":-89.0895,"lo2":-89.0444,"dy":0.0017,"dx":0.0017,"nx":28,"ny":28,"refTime":"2024-06-10T09:00:00:Z","depth":0,"parameterNumber":3,"parameterNumberName":"V-component_of_WINDS"},"data":[0,0,0,0,0,0,0,0,0,0,0,0,0,0,0,0,0,0,0,0,0,0,0,0,0,0,0,0,0,0,0,0,0,0,0,0,0,0,0,0,0,0,0,0,0,0,0,0,0,0,0,0,0,0,0,0,0,0,-1.9986,-1.9987,0,-2.003,-2.003,-2.003,-2.0069,-2.0069,-2.007,-2.007,-2.011,-2.0111,-2.0112,0,0,0,0,0,0,0,0,0,0,0,0,0,-1.9932,-1.9933,-1.9986,-1.9987,-1.9987,-2.0029,-2.003,-2.0031,-2.0069,-2.0069,-2.007,-2.0071,-2.011,-2.0111,-2.0112,0,0,0,0,0,0,0,0,0,0,0,0,0,-1.9964,-1.9934,-1.9986,-2.0012,-2.0014,-2.0029,-2.003,-2.0031,-2.0069,-2.0069,-2.007,-2.0071,-2.011,-2.0111,-2.0112,-2.0104,0,0,-2.0115,-2.0115,0,0,0,0,0,0,0,0,-1.9962,-1.9966,-2.0007,-2.001,-2.0013,-2.0045,-2.0026,-2.0055,-2.0069,-2.0048,-2.007,-2.0071,-2.0088,-2.0091,-2.0097,-2.0106,-2.0107,-2.0115,-2.0115,-2.0116,-2.0116,0,0,0,0,0,0,0,-1.996,-1.9964,-2.0003,-2.0008,-2.0011,-2.0019,-2.0025,-2.0032,-2.0063,-2.005,-2.0053,-2.0058,-2.0089,-2.0096,-2.0098,-2.0108,-2.0115,-2.0116,-2.0116,-2.0117,-2.0111,-2.011,0,0,0,0,0,0,-1.9954,-1.9962,-2.0002,-2.0005,-1.9989,-2.002,-2.0026,-2.0034,-2.0063,-2.0069,-2.0057,-2.0059,-2.0094,-2.0097,-2.01,-2.0091,-2.0116,-2.0117,-2.0117,-2.0112,-2.0111,-2.011,0,0,0,0,0,0,-1.9953,-1.9957,-2.0,-1.9984,-1.999,-2.002,-2.0029,-2.0034,-2.0041,-2.0069,-2.0074,-2.0058,-2.0095,-2.0098,-2.0103,-2.0093,-2.0117,-2.0118,-2.0112,-2.0111,-2.011,-2.0074,0,0,0,0,0,0,-1.9951,-1.9957,-1.9955,-1.9984,-1.9991,-2.0003,-2.0028,-2.0035,-2.0043,-2.0046,-2.0071,-2.0076,-2.0095,-2.0101,-2.0103,-2.0095,-2.0119,-2.0113,-2.0112,-2.0111,-2.0076,-2.0072,-2.0069,0,0,0,0,0,-1.9949,-1.9942,-1.9955,-1.9959,-1.9989,-2.0003,-2.0007,-2.003,-2.0042,-2.004,-2.0058,-2.0075,-2.0094,-2.0101,-2.0104,-2.0096,-2.0114,-2.0112,-2.0111,-2.0078,-2.0073,-2.0069,0,0,0,0,0,0,-1.991,-1.9947,-1.9961,-1.9963,-1.998,-2.0009,-2.0007,-2.0024,-2.0036,-2.0039,-2.0067,-2.0072,-2.0072,-2.0085,-2.0092,-2.0089,-2.0106,-2.0105,-2.0081,-2.0076,-2.0072,-2.0068,-2.012,0,0,0,0,0,-1.9902,-1.9911,-1.9942,-1.9941,-1.9949,-1.9977,-1.9983,-2.0,-2.0018,-2.0024,-2.0043,-2.0058,-2.0067,-2.0072,-2.0083,-2.0079,-2.0084,-2.0075,-2.0071,-2.0067,-2.0065,-2.0063,-2.0059,-2.0105,-2.0105,-2.0105,0,0,-1.9885,-1.9906,-1.991,-1.9934,-1.9949,-1.9956,-1.9982,-1.9989,-1.9994,-2.0025,-2.003,-2.0044,-2.0063,-2.0062,-2.0063,-2.0073,-2.0054,-2.0065,-2.0062,-2.0062,-2.0061,-2.0056,-2.0053,-2.0104,-2.0104,-2.0104,0,0,-1.9857,-1.9875,-1.9876,-1.989,-1.9913,-1.9931,-1.9931,-1.9958,-1.9969,-1.9975,-1.9998,-2.0004,-2.002,-2.0032,-2.004,-2.0017,-2.0033,-2.002,-1.9998,-1.9995,-1.9992,-1.9988,-1.9978,-1.9975,-2.0018,-2.0018,-2.0018,0,-1.9832,-1.9846,-1.9873,-1.9879,-1.9888,-1.9918,-1.9918,-1.9931,-1.9955,-1.996,-1.9971,-1.9991,-2.0005,-2.0008,-2.0002,-2.0009,-2.0008,-2.0016,-1.999,-1.9987,-1.9985,-1.9975,-1.9972,-2.0016,-2.0016,-2.0017,-2.0017,0,-1.9813,-1.9822,-1.982,-1.9843,-1.9853,-1.9855,-1.9882,-1.9888,-1.9904,-1.9921,-1.9926,-1.9945,-1.9959,-1.9961,-1.9977,-1.9965,-1.997,-1.9985,-2.0003,-1.9978,-1.997,-1.9966,-2.0013,-2.0014,-2.0015,-2.0015,0,0,-1.976,-1.98,-1.9799,-1.981,-1.9837,-1.9843,-1.9847,-1.9862,-1.9866,-1.9881,-1.9884,-1.9897,-1.9911,-1.992,-1.9937,-1.9935,-1.9913,-1.995,-1.9951,-1.9941,-1.99,-1.9887,-1.9882,-1.9925,-1.9925,-1.9924,-1.9898,0,-1.9736,-1.9745,-1.977,-1.9771,-1.9778,-1.9808,-1.981,-1.9827,-1.9842,-1.985,-1.9867,-1.9875,-1.9894,-1.99,-1.9899,-1.9916,-1.9905,-1.9919,-1.9925,-1.9925,-1.9918,-1.9878,-1.9865,-1.9839,-1.9895,-1.9894,-1.9894,0,-1.9708,-1.9722,-1.9724,-1.9751,-1.9755,-1.9757,-1.9772,-1.978,-1.9799,-1.981,-1.9821,-1.984,-1.9844,-1.9862,-1.9866,-1.9875,-1.9879,-1.9888,-1.9888,-1.9887,-1.9906,-1.9875,-1.9831,-1.9826,-1.9889,-1.989,-1.989,0,-1.9666,-1.9687,-1.9691,-1.9699,-1.9731,-1.9731,-1.9744,-1.9764,-1.9771,-1.9784,-1.9789,-1.9802,-1.9808,-1.9817,-1.9839,-1.9851,-1.984,-1.9861,-1.9848,-1.9847,-1.9843,-1.9842,-1.9797,-1.9849,-1.9849,-1.9849,-1.9849,0,-1.9635,-1.9634,-1.9673,-1.9674,-1.9674,-1.9703,-1.9702,-1.9717,-1.9734,-1.9738,-1.9765,-1.9767,-1.9798,-1.9803,-1.9821,-1.9821,-1.9824,-1.9832,-1.9836,-1.9828,-1.9827,-1.983,-1.9831,-1.9848,-1.9849,-1.9849,-1.9849,0,-1.9588,-1.9614,-1.9619,-1.9649,-1.9657,-1.9655,-1.968,-1.9682,-1.97,-1.9705,-1.9707,-1.9735,-1.9743,-1.9767,-1.9781,-1.9793,-1.9787,-1.9796,-1.978,-1.9783,-1.9768,-1.9768,-1.9721,-1.9715,-1.9773,-1.9773,-1.9772,0,-1.9565,-1.9565,-1.9596,-1.9601,-1.9613,-1.9621,-1.9629,-1.9658,-1.9664,-1.9685,-1.9684,-1.9695,-1.9705,-1.9717,-1.9737,-1.9748,-1.9756,-1.9739,-1.9758,-1.975,-1.9753,-1.9752,-1.9751,-1.9734,-1.9733,-1.9733,-1.9732,0,-1.952,-1.9533,-1.9545,-1.956,-1.9569,-1.9582,-1.9596,-1.9599,-1.963,-1.9636,-1.9646,-1.9654,-1.9669,-1.9678,-1.9693,-1.9704,-1.9722,-1.9727,-1.9724,-1.9715,-1.9705,-1.9708,-1.9767,-1.9727,-1.9727,-1.9728,-1.9728,-1.9728,-1.9483,-1.9485,-1.9506,-1.9517,-1.9531,-1.9544,-1.9547,-1.9566,-1.9575,-1.959,-1.9607,-1.9614,-1.9632,-1.9653,-1.9663,-1.9668,-1.9678,-1.9674,-1.9673,-1.9671,-1.9667,-1.9706,-1.9671,-1.9671,-1.9671,-1.9671,-1.9672,0,-1.9438,-1.9454,-1.9464,-1.9484,-1.9492,-1.9512,-1.9528,-1.9533,-1.954,-1.9556,-1.9566,-1.9576,-1.9585,-1.9607,-1.9618,-1.9618,-1.9626,-1.9619,-1.9618,-1.962,-1.9658,-1.9658,-1.9612,-1.9612,-1.9612,-1.9612,-1.9612,-1.9612,-1.9416,-1.9419,-1.9434,-1.9443,-1.9459,-1.9467,-1.9475,-1.9486,-1.9499,-1.951,-1.9518,-1.9533,-1.955,-1.9563,-1.9572,-1.9578,-1.9579,-1.9569,-1.9578,-1.9612,-1.9618,-1.9623,-1.9623,-1.957,-1.957,-1.9539,-1.9539,-1.9538]}]]